When you browse on this site, cookies collect data to enhance your experience and personalize the content and advertising you see.
Visit our Privacy Policy to learn more. By continuing to use the site, you agree to this use of cookies and data.
  • In Schweiz
  • Länderverzeichnis
  • Für 7 Tage
  • Wassertemperatur
  • Wetterkarte
  • Widgets
  • user-avatar
    Anmelden

    Stündliche Wetter Oran

    Heute, 14 Dezember, Samstag

    Zeit Temperatur Niederschläge Wind Luftdruck Luftfeuchtigkeit
    00:00 +13°C° 0 mm 9 m/S 754 mmHg 87%
    01:00 +13°C° 0 mm 9 m/S 753 mmHg 87%
    02:00 +13°C° 0 mm 9 m/S 753 mmHg 86%
    03:00 +13°C° 0 mm 9 m/S 753 mmHg 86%
    04:00 +13°C° 0 mm 9 m/S 753 mmHg 86%
    05:00 +13°C° 0 mm 9 m/S 753 mmHg 86%
    06:00 +13°C° 0 mm 9 m/S 753 mmHg 86%
    07:00 +13°C° 0 mm 9 m/S 753 mmHg 84%
    08:00 +15°C° 0 mm 8 m/S 754 mmHg 81%
    09:00 +15°C° 0 mm 8 m/S 754 mmHg 79%
    10:00 +16°C° 0 mm 8 m/S 754 mmHg 74%
    11:00 +17°C° 0 mm 8 m/S 753 mmHg 70%
    12:00 +18°C° 0 mm 8 m/S 753 mmHg 66%
    13:00 +17°C° 0 mm 8 m/S 753 mmHg 67%
    14:00 +17°C° 0 mm 8 m/S 753 mmHg 68%
    15:00 +17°C° 0 mm 7 m/S 752 mmHg 70%
    16:00 +16°C° 0 mm 7 m/S 753 mmHg 74%
    17:00 +15°C° 0 mm 6 m/S 753 mmHg 79%
    18:00 +14°C° 0 mm 6 m/S 753 mmHg 83%
    19:00 +14°C° 0 mm 5 m/S 753 mmHg 85%
    20:00 +14°C° 0 mm 5 m/S 753 mmHg 86%
    21:00 +14°C° 0 mm 5 m/S 753 mmHg 88%
    22:00 +13°C° 0 mm 5 m/S 753 mmHg 89%
    23:00 +13°C° 0 mm 4 m/S 753 mmHg 90%

    Morgen, 15 Dezember, Sonntag

    Zeit Temperatur Niederschläge Wind Luftdruck Luftfeuchtigkeit
    00:00 +13°C° 0 mm 4 m/S 753 mmHg 91%
    01:00 +13°C° 0 mm 4 m/S 753 mmHg 91%
    02:00 +13°C° 0 mm 4 m/S 752 mmHg 92%
    03:00 +12°C° 0 mm 4 m/S 752 mmHg 92%
    04:00 +12°C° 0 mm 4 m/S 752 mmHg 92%
    05:00 +12°C° 0 mm 4 m/S 752 mmHg 91%
    06:00 +12°C° 0 mm 3 m/S 752 mmHg 91%
    07:00 +13°C° 0 mm 3 m/S 752 mmHg 89%
    08:00 +14°C° 0 mm 3 m/S 752 mmHg 86%
    09:00 +14°C° 0 mm 3 m/S 752 mmHg 84%
    10:00 +16°C° 0 mm 2 m/S 752 mmHg 79%
    11:00 +17°C° 0 mm 2 m/S 752 mmHg 74%
    12:00 +18°C° 0 mm 2 m/S 751 mmHg 70%
    13:00 +18°C° 0 mm 2 m/S 751 mmHg 68%
    14:00 +19°C° 0 mm 1 m/S 750 mmHg 67%
    15:00 +20°C° 0 mm 1 m/S 750 mmHg 66%
    16:00 +19°C° 0 mm 1 m/S 750 mmHg 71%
    17:00 +18°C° 0 mm 1 m/S 749 mmHg 77%
    18:00 +16°C° 0 mm 1 m/S 749 mmHg 82%
    19:00 +15°C° 0 mm 1 m/S 749 mmHg 83%
    20:00 +15°C° 0 mm 1 m/S 749 mmHg 83%
    21:00 +15°C° 0 mm 1 m/S 749 mmHg 84%
    22:00 +15°C° 0 mm 1 m/S 749 mmHg 80%
    23:00 +15°C° 0 mm 1 m/S 748 mmHg 77%

    übermorgen, 16 Dezember, Montag

    Zeit Temperatur Niederschläge Wind Luftdruck Luftfeuchtigkeit
    00:00 +15°C° 0 mm 1 m/S 748 mmHg 73%
    01:00 +15°C° 0 mm 1 m/S 747 mmHg 67%
    02:00 +15°C° 0 mm 2 m/S 747 mmHg 60%
    03:00 +16°C° 0 mm 2 m/S 746 mmHg 54%
    04:00 +16°C° 0 mm 2 m/S 746 mmHg 49%
    05:00 +16°C° 0 mm 3 m/S 746 mmHg 45%
    06:00 +16°C° 0 mm 3 m/S 745 mmHg 40%
    07:00 +17°C° 0 mm 4 m/S 745 mmHg 38%
    08:00 +18°C° 0 mm 4 m/S 745 mmHg 35%
    09:00 +19°C° 0 mm 5 m/S 745 mmHg 33%
    10:00 +20°C° 0 mm 5 m/S 744 mmHg 30%
    11:00 +21°C° 0 mm 5 m/S 744 mmHg 28%
    12:00 +22°C° 0 mm 6 m/S 743 mmHg 25%
    13:00 +23°C° 0 mm 6 m/S 742 mmHg 24%
    14:00 +23°C° 0 mm 7 m/S 742 mmHg 23%
    15:00 +23°C° 0 mm 7 m/S 741 mmHg 22%
    16:00 +22°C° 0 mm 7 m/S 741 mmHg 22%
    17:00 +21°C° 0 mm 7 m/S 741 mmHg 22%
    18:00 +20°C° 0 mm 7 m/S 741 mmHg 22%
    19:00 +17°C° 0 mm 7 m/S 741 mmHg 37%
    20:00 +16°C° 0 mm 7 m/S 742 mmHg 53%
    21:00 +15°C° 0 mm 7 m/S 742 mmHg 69%
    22:00 +14°C° 0 mm 6 m/S 742 mmHg 75%
    23:00 +13°C° 0 mm 4 m/S 742 mmHg 81%

    17 Dezember, Dienstag

    Zeit Temperatur Niederschläge Wind Luftdruck Luftfeuchtigkeit
    00:00 +13°C° 0 mm 3 m/S 742 mmHg 87%
    01:00 +13°C° 0.1 mm 4 m/S 742 mmHg 86%
    02:00 +12°C° 0.1 mm 4 m/S 742 mmHg 86%
    03:00 +12°C° 0.1 mm 5 m/S 741 mmHg 86%
    04:00 +12°C° 0.8 mm 5 m/S 741 mmHg 87%
    05:00 +10°C° 0.8 mm 6 m/S 741 mmHg 88%
    06:00 +10°C° 0.8 mm 6 m/S 741 mmHg 90%
    07:00 +10°C° 2.6 mm 6 m/S 741 mmHg 89%
    08:00 +10°C° 2.6 mm 6 m/S 742 mmHg 88%
    09:00 +9°C° 2.6 mm 6 m/S 742 mmHg 87%
    10:00 +9°C° 1.7 mm 6 m/S 742 mmHg 85%
    11:00 +10°C° 1.7 mm 7 m/S 742 mmHg 83%
    12:00 +10°C° 1.7 mm 7 m/S 742 mmHg 80%
    13:00 +9°C° 0.2 mm 10 m/S 743 mmHg 75%
    14:00 +10°C° 0.2 mm 12 m/S 743 mmHg 69%
    15:00 +10°C° 0.2 mm 14 m/S 743 mmHg 64%
    16:00 +10°C° 0 mm 13 m/S 744 mmHg 66%
    17:00 +10°C° 0 mm 13 m/S 745 mmHg 67%
    18:00 +10°C° 0 mm 13 m/S 745 mmHg 69%
    19:00 +9°C° 0.1 mm 12 m/S 746 mmHg 70%
    20:00 +9°C° 0.1 mm 11 m/S 747 mmHg 71%
    21:00 +9°C° 0.1 mm 10 m/S 748 mmHg 72%
    22:00 +9°C° 0.1 mm 10 m/S 748 mmHg 72%
    23:00 +9°C° 0.1 mm 10 m/S 749 mmHg 72%

    18 Dezember, Mittwoch

    Zeit Temperatur Niederschläge Wind Luftdruck Luftfeuchtigkeit
    00:00 +9°C° 0.1 mm 10 m/S 749 mmHg 72%
    01:00 +9°C° 0.1 mm 10 m/S 749 mmHg 72%
    02:00 +10°C° 0.1 mm 9 m/S 750 mmHg 71%
    03:00 +10°C° 0.1 mm 9 m/S 750 mmHg 70%
    04:00 +10°C° 0 mm 9 m/S 750 mmHg 68%
    05:00 +9°C° 0 mm 10 m/S 750 mmHg 66%
    06:00 +9°C° 0 mm 10 m/S 751 mmHg 64%
    07:00 +9°C° 0 mm 10 m/S 751 mmHg 63%
    08:00 +11°C° 0 mm 10 m/S 752 mmHg 62%
    09:00 +11°C° 0 mm 10 m/S 752 mmHg 61%
    10:00 +12°C° 0 mm 10 m/S 753 mmHg 58%
    11:00 +13°C° 0 mm 11 m/S 753 mmHg 55%
    12:00 +13°C° 0 mm 11 m/S 753 mmHg 52%
    13:00 +13°C° 0 mm 11 m/S 753 mmHg 57%
    14:00 +13°C° 0 mm 10 m/S 753 mmHg 61%
    15:00 +13°C° 0 mm 10 m/S 753 mmHg 66%
    16:00 +12°C° 0 mm 9 m/S 753 mmHg 67%
    17:00 +12°C° 0 mm 8 m/S 753 mmHg 68%
    18:00 +11°C° 0 mm 7 m/S 753 mmHg 69%
    19:00 +11°C° 0 mm 6 m/S 753 mmHg 67%
    20:00 +12°C° 0 mm 5 m/S 754 mmHg 65%
    21:00 +10°C° 0 mm 5 m/S 754 mmHg 64%
    22:00 +11°C° 0 mm 4 m/S 754 mmHg 63%
    23:00 +11°C° 0 mm 3 m/S 753 mmHg 62%

    19 Dezember, Donnerstag

    Zeit Temperatur Niederschläge Wind Luftdruck Luftfeuchtigkeit
    00:00 +11°C° 0 mm 3 m/S 753 mmHg 61%
    01:00 +11°C° 0 mm 3 m/S 753 mmHg 61%
    02:00 +11°C° 0 mm 3 m/S 753 mmHg 61%
    03:00 +11°C° 0 mm 3 m/S 753 mmHg 61%
    04:00 +12°C° 0 mm 3 m/S 753 mmHg 60%
    05:00 +12°C° 0 mm 3 m/S 752 mmHg 59%
    06:00 +12°C° 0 mm 3 m/S 752 mmHg 58%
    07:00 +13°C° 0 mm 3 m/S 752 mmHg 56%
    08:00 +13°C° 0 mm 3 m/S 752 mmHg 54%
    09:00 +14°C° 0 mm 3 m/S 752 mmHg 52%
    10:00 +17°C° 0 mm 4 m/S 752 mmHg 47%
    11:00 +19°C° 0 mm 5 m/S 752 mmHg 41%
    12:00 +21°C° 0 mm 5 m/S 752 mmHg 36%
    13:00 +21°C° 0 mm 5 m/S 752 mmHg 38%
    14:00 +21°C° 0 mm 5 m/S 751 mmHg 39%
    15:00 +20°C° 0 mm 5 m/S 751 mmHg 41%
    16:00 +19°C° 0 mm 4 m/S 751 mmHg 45%
    17:00 +18°C° 0 mm 3 m/S 751 mmHg 50%
    18:00 +16°C° 0 mm 2 m/S 751 mmHg 55%
    19:00 +16°C° 0 mm 3 m/S 751 mmHg 52%
    20:00 +17°C° 0 mm 3 m/S 751 mmHg 50%
    21:00 +17°C° 0 mm 3 m/S 751 mmHg 47%
    22:00 +17°C° 0 mm 4 m/S 750 mmHg 46%
    23:00 +15°C° 0 mm 4 m/S 750 mmHg 45%
    Mehr zeigen